This demonstration page uses our WeatherBlox Daily Observations layout. Learn more.

Left ArrowRight Arrow

39.08367, -84.50855

Hourly Observations for January 27, 2017

Temp ( °F °C ) Dew Point ( °F °C ) Humidity (%) Winds ( mph kmh ) Pressure ( in mb ) Visibility ( mi km ) Precip ( " mm )
12:44 am 00:44 Cloudy 32 0 25 -4 75 75 WSW 12 19 30.06 1018 10 16 0.00 0.00
12:53 am 00:53 Cloudy 32 0 25 -3.9 75 75 WSW 13 20 30.03 1017 10 16 0.00 0.00
1:53 am 01:53 Cloudy 32 0 25 -3.9 75 75 WSW 10 17 30.02 1017 10 16 0.00 0.00
2:53 am 02:53 Cloudy 32 0 25 -3.9 75 75 WSW 9 15 30.02 1017 10 16 0.00 0.00
3:53 am 03:53 Cloudy 32 0 25 -3.9 75 75 WSW 14 22 30.01 1016 10 16 0.00 0.00
4:00 am 04:00 Cloudy 32 0 25 -4 75 75 WSW 12 19 30.00 1016 10 16 0.00 0.00
4:26 am 04:26 Cloudy 31 -0.6 26 -3.3 82 82 WSW 13 20 30.03 1017 10 16 0.00 0.00
4:53 am 04:53 Cloudy with Light Snow 31 -0.6 27 -2.8 85 85 WSW 12 19 30.00 1016 7 11 0.00 0.03
5:46 am 05:46 Cloudy 30 -1 27 -3 86 86 SW 12 19 30.03 1017 10 16 0.00 0.00
5:53 am 05:53 Cloudy 31 -0.6 27 -2.8 85 85 WSW 14 22 30.00 1016 10 16 0.00 0.03
6:43 am 06:43 Cloudy with Light Snow 31 -0.6 27 -2.8 85 85 SW 10 17 30.03 1017 2 3 0.00 0.03
6:53 am 06:53 Cloudy with Light Snow 31 -0.6 27 -2.8 85 85 WSW 12 19 30.01 1016 4 6 0.00 0.03
7:50 am 07:50 Cloudy with Light Snow 30 -1 27 -3 86 86 SW 14 22 30.03 1017 4 6 0.00 0.00
7:53 am 07:53 Cloudy with Light Snow 30 -1.1 27 -2.8 88 88 SW 13 20 30.01 1016 4 6 0.00 0.03
8:05 am 08:05 Cloudy with Light Snow 30 -1.1 27 -2.8 88 88 SW 14 22 30.03 1017 2 3 0.00 0.03
8:53 am 08:53 Cloudy with Light Snow 31 -0.6 27 -2.8 85 85 WSW 13 20 30.02 1017 5 8 0.00 0.03
9:36 am 09:36 Cloudy with Light Snow 30 -1 27 -3 86 86 SW 10 17 30.03 1017 5 8 0.00 0.00
9:53 am 09:53 Cloudy with Light Snow 31 -0.6 27 -2.8 85 85 SW 12 19 30.02 1017 8 13 0.00 0.03
10:19 am 10:19 Cloudy with Light Snow 31 -0.6 26 -3.3 82 82 SW 10 17 30.03 1017 8 13 0.00 0.03
10:48 am 10:48 Cloudy with Light Snow 32 0 27 -3 80 80 WSW 13 20 30.00 1016 7 11 0.00 0.03
10:53 am 10:53 Cloudy with Light Snow 32 0 26 -3.3 79 79 WSW 15 24 30.02 1017 7 11 0.00 0.03
11:53 am 11:53 Cloudy with Light Snow 32 0 26 -3.3 79 79 W 7 11 30.00 1016 6 10 0.01 0.25
12:53 pm 12:53 Cloudy 33 0.6 26 -3.3 75 75 SW 13 20 29.98 1015 10 16 0.00 0.03
1:53 pm 13:53 Cloudy 36 2.2 25 -3.9 64 64 WSW 13 20 29.96 1014 10 16 0.00 0.03
2:53 pm 14:53 Cloudy 35 1.7 22 -5.6 59 59 WSW 17 28 29.95 1014 10 16 0.00 0.00
3:53 pm 15:53 Cloudy 35 1.7 23 -5 61 61 WSW 16 26 29.95 1014 10 16 0.00 0.00
4:53 pm 16:53 Cloudy 35 1.7 23 -5 61 61 WSW 12 19 29.95 1014 10 16 0.00 0.00
5:53 pm 17:53 Cloudy 35 1.7 24 -4.4 64 64 WSW 13 20 29.95 1014 10 16 0.00 0.00
6:53 pm 18:53 Cloudy 34 1.1 25 -3.9 70 70 WSW 15 24 29.96 1014 10 16 0.00 0.00
7:53 pm 19:53 Cloudy 34 1.1 24 -4.4 67 67 SW 8 13 29.96 1015 10 16 0.00 0.00
8:53 pm 20:53 Cloudy 34 1.1 25 -3.9 70 70 WSW 12 19 29.95 1014 10 16 0.00 0.00
9:53 pm 21:53 Cloudy 34 1.1 25 -3.9 70 70 WSW 9 15 29.95 1014 10 16 0.00 0.00
10:53 pm 22:53 Cloudy 33 0.6 25 -3.9 72 72 WSW 9 15 29.94 1014 10 16 0.00 0.00
11:41 pm 23:41 Cloudy 33 0.6 24 -4.4 70 70 WSW 18 30 29.94 1014 10 16 0.00 0.00
11:53 pm 23:53 Cloudy 33 0.6 23 -5 66 66 W 16 26 29.93 1014 10 16 0.00 0.00

Powered by AerisWeather